STARLINK-30041, 57613

Orbit data source: Space-Track

STARLINK-30041, 57613 is a payload satellite owned by SpaceX/Seattle (US) in LEO that was launched on Fri, 11 Aug 2023 UTC via an FALCON 9 launch vehicle from the Air Force Eastern Test Range (AFETR). Payload-class satellites include a variety of spacecraft equipped with specific instruments for various scientific and technological missions. These include communications satellites like Starlink; space stations such as the ISS; scientific satellites like the Hubble; Earth observation satellites from companies like Planet Labs, Umbra, and HawkEye 360; GPS; miniature CubeSats for education and research; and military/defense satellites.

Loading next visibility...
Identifier
57613, 2023-119M
Orbit
LEO
Country
Flag of USUS
Related business
Manufacturer
SpaceX/Seattle
Mission
Operational Commercial Communications
Bus & Motor
STARLINK V2M, Unknown motor
Mass
730 kg wet, ~700 kg dry
Launch date (UTC)
2023-08-11 (3 years ago)
Launch vehicle
FALCON 9
Launch site
Air Force Eastern Test Range (AFETR)
Object type
Payload
Rocket body
Debris
Shape & HBR
Box + 2 Pan, 17.7 m
Radar Cross Section
33.884 m², Large (>1 m²)

Expand to show TLE details & history
Last TLE update: 1 day ago

TLE from 1 day ago
0 STARLINK-30041
1 57613U 23119M   26094.61290589 -.00004077  00000-0 -13864-3 0  9994
2 57613  43.0059 294.9497 0002169 285.5199  74.5413 15.27588211147057
Epoch: 2026-04-04T14:42Z
TLE epoch observation values (Epoch: 2026-04-04T14:42:35.068Z)
Latitude
-0.00005°
Longitude
-118.62664°
Altitude
482.404 km
Speed
7.626 km/s
True Right ascension
19h 39m 47s
True Declination
0° 00' 00"
Sunlit
Object was in daylight at epoch
Visualization orbit readout
Latitude
Unknown
Longitude
Unknown
Altitude
Unknown
Speed
Unknown
Apparent Right ascension
Unknown
Apparent Declination
Unknown
Sunlit
N/A
Visualization observer readout
Local Sidereal Time
20:51:16
Azimuth
Unknown
Elevation
Unknown
Doppler factor
Unknown
Orbital elements
Apogee altitude
486.457 km
Perigee altitude
483.48 km
Semi-major axis
6,863.106 km
Eccentricity
0.00022
Inclination
43.0059°
RAAN
294.9497°
Arg. of periapsis
285.5199°
True anomaly
74.56526°
Mean anomaly
74.5413°
Eccentric anomaly
74.55328°
Mean motion
3.81735 °/min
Orbital period
94.31 mins
BSTAR
-0.00013864
Loading maneuver chart data...
Computing Atmospheric mass density...
Loading historical data...
Loading historical data...
Loading historical data...
Loading historical data...
Loading historical data...
Loading historical data...
Loading historical data...

Documentation

Showing up to 5 results
|